Location: Newark
(34.9500°N, 139.9667°E)
Time: 08:34:37
(UTC+00:00)

Vanguard 2 Rocket - Pass Details

Date: 17 December 2019
Orbit: 554 x 3326 km, 32.9° (Epoch: 19 January)

Event Time Altitude Azimuth Distance (km) Brightness Sun altitude
Rises 11:37:00 0° 282° (WNW) 5,915 11.7 -49.6°
Reaches altitude 10° 11:41:45 10° 278° (W) 4,440 10.9 -50.5°
Enters shadow 11:48:01 30° 260° (W) 2,502 9.3 -51.8°
Maximum altitude 11:52:02 46° 210° (SSW) 1,679 - -52.6°
Drops below altitude 10° 11:58:02 10° 138° (SE) 2,612 - -53.9°
Sets 12:00:10 0° 131° (SE) 3,328 - -54.3°
